Location: Mannheim
(49.4880°N, 8.4650°E)
Time: 16:14:50
(UTC+02:00)

ISS - Pass Details

Date: 24 June 2024
Orbit: 409 x 423 km, 51.6° (Epoch: 22 July)

Event Time Altitude Azimuth Distance (km) Brightness Sun altitude
Exits shadow 04:30:29 - 194° (SSW) 1,754 -1.2 -6.7°
Reaches altitude 10° 04:31:21 10° 185° (S) 1,482 -1.5 -6.6°
Maximum altitude 04:33:43 18° 140° (SE) 1,086 -1.7 -6.3°
Drops below altitude 10° 04:36:07 10° 94° (E) 1,496 -0.4 -6.1°
Sets 04:38:32 0° 76° (ENE) 2,327 1.1 -5.8°
